Location: Bad Dürkheim
(49.4618°N, 8.1724°E)
Time: 21:30:28
(UTC+00:00)

Cosmos 1892 - Pass Details

Date: 14 June 2025
Orbit: 364 x 370 km, 82.5° (Epoch: 16 July)

Event Time Altitude Azimuth Distance (km) Brightness Sun altitude
Exits shadow 22:41:03 41° 214° (SSW) 568 2.5 -16.5°
Maximum altitude 22:41:55 67° 280° (W) 420 2.2 -16.5°
Drops below altitude 10° 22:44:57 10° 5° (N) 1,405 6.1 -16.6°
Sets 22:46:57 0° 8° (N) 2,259 7.4 -16.7°
